sat.trackr.live / text

‹ back to catalog

STARLINK-31110

NORAD 58679 · 2023-211N

PAYLOAD ACTIVE UNKNOWN

§ Identity

Operator
Country
US
Launch date
2023-12-29
Launch site
AFETR
Launch vehicle
Mass (kg)
RCS (m²)

Purposes: comms

External: N2YO · Heavens-Above · Gunter

§ Orbital elements

Epoch: 2026-09-20T17:14:37.396896Z

Period
94.27 min
Inclination
43.0028°
Eccentricity
0.0001322
Mean motion
15.27580738 rev/d
Perigee alt
482.1 km
Apogee alt
484.0 km
Semi-major
6,861.2 km
B*
3.3278e-5
RAAN
63.6920°
Arg perigee
269.2592°
Mean anomaly
90.8108°
Rev number
15,229

§ Raw data

STARLINK-311101 58679U 23211N   26263.71848839  .00000654  00000+0  33278-4 0  99922 58679  43.0028  63.6920 0001322 269.2592  90.8108 15.27580738152294

JSON: /api/v1/satellites/58679 · /tle

For live sub-satellite position, see the globe view (requires WebGL).

§ Visibility from observer

Set your observer location to see the next 7 days of passes ≥ 10°. The values pass through the URL so the page stays shareable.

No JS? Fill the form by hand. The geolocation button needs JavaScript.